Keahole Point, HI

12:26 PM HST on December 18, 2017 (GMT -1000)
Kona International At Keahole

Weather History for PHKO - August, 2014

Change the Weather History Date:

Saturday, August 23, 2014

  Actual Average Record
Temperature  
Mean Temperature 82 °F -  
Max Temperature 88 °F 84 °F 92 °F (1982)
Min Temperature 75 °F 73 °F 71 °F (1983)
Cooling Degree Days 16    
Growing Degree Days 32 (Base 50)    
Moisture  
Dew Point 66 °F    
Average Humidity 59    
Maximum Humidity 76    
Minimum Humidity 44    
Precipitation  
Precipitation 0.00 in - - ()
Sea Level Pressure  
Sea Level Pressure 29.91 in    
Wind  
Wind Speed 9 mph (SSE)    
Max Wind Speed 18 mph    
Max Gust Speed 22 mph    
Visibility 10 miles    
Events Rain    
Averages and records for this station are not official NWS values.
T = Trace of Precipitation, MM = Missing Value Source: NWS Daily Summary

Daily Weather History Graph

Daily Weather History Graph

Search for Another Location

Airport or City:

Trip Planner

Search our weather history database for the weather conditions in past years. The results will help you decide how hot, cold, wet, or windy it might be!

Date:

Astronomy

Aug. 23, 2014 Rise Set
Actual Time 6:06 AM HST 6:46 PM HST
Civil Twilight 5:44 AM HST 7:09 PM HST
Nautical Twilight 5:17 AM HST 7:35 PM HST
Astronomical Twilight 4:50 AM HST 8:02 PM HST
Moon 4:37 AM HST (8/23) 5:36 PM HST (8/23)
Length of Visible Light 13h 24m
Length of Day
12h 39m
Waning Crescent, 3% of the Moon is Illuminated
Aug 23
Waning Crescent
Aug 25
New
Sep 2
First Quarter
Sep 8
Full
Sep 15
Last Quarter

Hourly Weather History & Observations

Time (HST) Temp. Heat Index Dew Point Humidity Pressure Visibility Wind Dir Wind Speed Gust Speed Precip Events Conditions
12:01 AM 78.8 °F - 62.6 °F 57% 29.94 in 10.0 mi ENE 5.8 mph - N/A   Scattered Clouds
12:53 AM 80.1 °F 82.7 °F 68.0 °F 67% 29.93 in 10.0 mi ESE 5.8 mph - N/A   Clear
1:53 AM 78.1 °F - 60.1 °F 54% 29.91 in 10.0 mi Calm Calm - N/A   Clear
2:53 AM 75.9 °F - 64.0 °F 67% 29.91 in 10.0 mi NNE 8.1 mph - N/A   Clear
3:53 AM 78.1 °F - 60.1 °F 54% 29.91 in 10.0 mi NE 13.8 mph - N/A   Clear
4:53 AM 75.9 °F - 61.0 °F 60% 29.91 in 10.0 mi East 6.9 mph - N/A   Clear
5:53 AM 77.0 °F - 61.0 °F 58% 29.92 in 10.0 mi NE 11.5 mph - N/A   Clear
6:53 AM 75.9 °F - 60.1 °F 58% 29.93 in 10.0 mi NE 9.2 mph - N/A   Partly Cloudy
7:53 AM 82.9 °F 82.8 °F 59.0 °F 44% 29.94 in 10.0 mi ENE 9.2 mph - N/A   Clear
8:53 AM 84.9 °F 85.9 °F 63.0 °F 48% 29.93 in 10.0 mi SSE 9.2 mph - N/A   Clear
9:53 AM 86.0 °F 88.8 °F 66.9 °F 53% 29.93 in 10.0 mi SSE 12.7 mph - N/A   Clear
10:53 AM 88.0 °F 91.4 °F 68.0 °F 51% 29.91 in 10.0 mi South 17.3 mph 21.9 mph N/A   Scattered Clouds
11:53 AM 87.1 °F 91.3 °F 69.1 °F 55% 29.91 in 10.0 mi South 18.4 mph - N/A   Scattered Clouds
12:53 PM 88.0 °F 91.4 °F 68.0 °F 51% 29.89 in 10.0 mi South 16.1 mph - N/A   Scattered Clouds
1:53 PM 86.0 °F 88.8 °F 66.9 °F 53% 29.88 in 10.0 mi South 17.3 mph - N/A   Scattered Clouds
2:53 PM 87.1 °F 90.6 °F 68.0 °F 53% 29.86 in 10.0 mi South 16.1 mph - N/A   Scattered Clouds
3:53 PM 84.9 °F 87.6 °F 66.9 °F 55% 29.86 in 10.0 mi SSW 13.8 mph - N/A   Overcast
4:53 PM 82.9 °F 86.5 °F 69.1 °F 63% 29.86 in 10.0 mi South 10.4 mph - N/A   Mostly Cloudy
5:53 PM 82.0 °F 85.5 °F 69.1 °F 65% 29.87 in 10.0 mi South 8.1 mph - N/A   Mostly Cloudy
6:53 PM 82.0 °F 85.5 °F 69.1 °F 65% 29.88 in 10.0 mi SW 6.9 mph - N/A   Overcast
7:53 PM 81.0 °F 84.1 °F 69.1 °F 67% 29.91 in 10.0 mi West 4.6 mph - 0.00 in   Overcast
8:53 PM 80.1 °F 82.7 °F 68.0 °F 67% 29.93 in 10.0 mi West 5.8 mph 16.1 mph 0.00 in Rain Light Rain
9:53 PM 80.1 °F 82.9 °F 69.1 °F 69% 29.94 in 10.0 mi NNW 6.9 mph - 0.00 in   Overcast
10:53 PM 79.0 °F - 69.1 °F 72% 29.94 in 10.0 mi NW 6.9 mph - N/A   Scattered Clouds
11:53 PM 78.1 °F - 70.0 °F 76% 29.92 in 10.0 mi Calm Calm - N/A   Partly Cloudy